User: anonymous   Login
Location: Unspecified
(0.0000°N, 0.0000°E)
Time: 02:59:32
(UTC+00:00)
Language:

TBA - TO BE ASSIGNED - Orbit

View from above orbital plane
View from above orbital plane
View from above satellite
View from above satellite

Ground track
Ground track

The orbit is defined by the following mean orbital elements,

1 68872U          26145.55709131 +.00000000 +00000-0 +63571-3 0 00008
2 68872  51.8722 352.0928 0010530 218.4205 141.6032 15.35635376    09
Epoch (UTC): 25 May 2026 13:22:12
Eccentricity: 0.0010530
inclination: 51.8722°
perigee height: 452 km
apogee height: 466 km
right ascension of ascending node: 352.0928°
argument of perigee: 218.4205°
revolutions per day: 15.35635376
mean anomaly at epoch: 141.6032°

The dashed part of the orbit path shows where the satellite is in the earth's shadow,  

DLR